Stations météo

réclame
Mon MeteoGroup
Don Benito, Espagne (8333): Température de l'air & dewpoint: 17.10.2018 12:00:00 - 23.10.2018 12:00:00 (CEST)Don Benito, Espagne (8333): Vitesse du vent & gusts: 17.10.2018 12:00:00 - 23.10.2018 12:00:00 (CEST)Don Benito, Espagne (8333): Direction du vent: 17.10.2018 12:00:00 - 23.10.2018 12:00:00 (CEST)Don Benito, Espagne (8333): reduced air pressure: 17.10.2018 12:00:00 - 23.10.2018 12:00:00 (CEST)Don Benito, Espagne (8333): visibility: 17.10.2018 12:00:00 - 23.10.2018 12:00:00 (CEST)Don Benito, Espagne (8333): Ensoleillement: 17.10.2018 12:00:00 - 23.10.2018 12:00:00 (CEST)Don Benito, Espagne (8333): Quantités de précipitations: 17.10.2018 12:00:00 - 23.10.2018 12:00:00 (CEST)
Date & Time tt [°C] td [°C] ff [km/h] ff [knt] fx [km/h] fx [knt] dd ppp [hPa] vv [km] sd [min] rr [mm]
23.10.2018 12:00:00 - - - - - - - - - - -
23.10.2018 11:00:00 18,9 14,3 7 4 16 8 E 1024,0 20 49 0,0
23.10.2018 10:00:00 15,9 13,8 4 2 10 6 E 1023,6 20 10 0,0
23.10.2018 09:00:00 14,6 13,4 4 2 7 4 E 1022,8 16 0 0,0
23.10.2018 08:00:00 14,3 13,2 2 1 7 4 SSE 1022,6 13 0 -
23.10.2018 07:00:00 14,3 13,2 3 1 7 4 E 1021,8 15 0 0,0
23.10.2018 06:00:00 14,5 13,4 3 1 6 4 N 1021,4 11 0 0,0
23.10.2018 05:00:00 14,5 13,3 2 1 8 4 SE 1021,9 14 0 0,0
23.10.2018 04:00:00 15,3 14,0 2 1 4 2 NNE 1021,6 12 0 0,0
23.10.2018 03:00:00 15,5 13,7 1 1 4 2 NNW 1021,5 14 0 0,0
23.10.2018 02:00:00 15,8 13,5 0 0 6 3 N 1021,7 16 0 -
23.10.2018 01:00:00 16,5 13,8 0 0 4 2 N 1021,7 18 0 0,0
23.10.2018 00:00:00 17,1 13,9 2 1 5 3 SSE 1021,4 18 0 0,0
22.10.2018 23:00:00 18,0 13,9 1 1 6 3 SSE 1020,9 20 0 0,0
22.10.2018 22:00:00 19,0 13,9 1 1 4 2 SSW 1020,4 15 0 0,0
22.10.2018 21:00:00 20,1 12,8 1 1 3 2 E 1019,8 17 0 0,0
22.10.2018 20:00:00 21,3 12,4 1 1 8 4 NNE 1019,5 20 6 -
22.10.2018 19:00:00 24,0 11,7 3 2 9 5 NNE 1019,0 20 50 0,0
22.10.2018 18:00:00 25,3 10,8 3 2 10 6 NE 1018,8 20 60 0,0
22.10.2018 17:00:00 26,0 11,0 4 2 13 7 ESE 1018,6 20 60 0,0
22.10.2018 16:00:00 25,2 11,0 6 3 14 7 E 1019,0 20 60 0,0
22.10.2018 15:00:00 24,4 12,3 3 2 9 5 E 1019,5 20 60 0,0
22.10.2018 14:00:00 22,9 12,5 4 2 10 5 ENE 1020,5 20 60 -
22.10.2018 13:00:00 22,8 13,3 4 2 9 5 SE 1020,8 20 60 0,0
22.10.2018 12:00:00 20,9 13,9 3 1 9 5 SE 1021,1 20 60 0,0
22.10.2018 11:00:00 18,9 14,3 4 2 8 4 SE 1021,2 20 60 0,0
22.10.2018 10:00:00 15,3 14,0 1 1 7 4 NNW 1021,5 17 4 0,0
22.10.2018 09:00:00 15,1 13,5 4 2 11 6 ESE 1020,7 20 0 0,0
22.10.2018 08:00:00 15,2 13,8 6 3 10 5 SE 1020,8 20 0 -
22.10.2018 07:00:00 15,5 13,9 3 1 9 5 NW 1020,3 20 0 0,0
22.10.2018 06:00:00 15,9 13,6 3 1 20 11 ENE 1019,9 20 0 0,0
22.10.2018 05:00:00 15,9 13,4 10 5 22 12 SSW 1019,8 20 0 0,4
22.10.2018 04:00:00 17,2 13,0 5 3 24 13 NE 1020,2 20 0 0,0
22.10.2018 03:00:00 17,8 13,9 5 3 16 9 ENE 1020,3 20 0 0,0
22.10.2018 02:00:00 18,2 13,1 6 3 26 14 E 1020,4 20 0 -
22.10.2018 01:00:00 17,8 13,4 4 2 16 9 E 1020,2 20 0 0,0
22.10.2018 00:00:00 17,5 13,5 2 1 6 3 N 1019,6 20 0 0,0
21.10.2018 23:00:00 18,2 13,5 2 1 6 3 ESE 1019,0 20 0 0,0
21.10.2018 22:00:00 19,4 13,2 5 3 9 5 SE 1018,4 20 0 0,0
21.10.2018 21:00:00 20,4 12,3 4 2 9 5 ESE 1018,4 20 0 0,0
21.10.2018 20:00:00 21,2 12,1 3 2 15 8 E 1017,9 20 0 -
21.10.2018 19:00:00 22,6 10,8 8 4 18 10 E 1017,1 20 49 0,0
21.10.2018 18:00:00 23,6 11,0 6 4 23 12 E 1016,8 20 44 0,0
21.10.2018 17:00:00 23,8 10,8 10 5 24 13 E 1016,9 20 57 0,0
21.10.2018 16:00:00 23,3 11,7 10 5 22 12 E 1017,5 20 55 0,0
21.10.2018 15:00:00 21,1 11,7 9 5 24 13 E 1018,0 20 7 0,0
21.10.2018 14:00:00 22,6 12,2 14 8 26 14 SE 1018,6 20 50 -
21.10.2018 13:00:00 21,2 13,4 10 5 22 12 ESE 1018,6 20 40 0,0
21.10.2018 12:00:00 19,5 15,3 4 2 10 6 SE 1018,9 20 43 0,0
21.10.2018 11:00:00 16,8 14,8 3 2 9 5 ENE 1019,0 20 23 0,0
21.10.2018 10:00:00 14,6 13,7 2 1 11 6 SSE 1018,9 20 0 0,0
21.10.2018 09:00:00 14,4 13,8 4 2 11 6 E 1018,1 19 0 0,0
21.10.2018 08:00:00 14,6 13,9 4 2 10 5 ENE 1017,8 19 0 -
21.10.2018 07:00:00 13,9 13,3 1 1 5 3 E 1017,8 4,0 0 0,0
21.10.2018 06:00:00 14,1 13,4 0 0 5 3 N 1017,4 2,1 0 0,0
21.10.2018 05:00:00 14,8 14,0 1 1 6 4 SW 1017,3 9 0 0,0
21.10.2018 04:00:00 15,2 14,4 3 2 8 4 ENE 1017,6 6 0 0,0
21.10.2018 03:00:00 15,3 14,3 3 2 6 4 NNE 1017,5 4,0 0 0,0
21.10.2018 02:00:00 15,4 14,4 4 2 8 5 SSW 1018,1 11 0 -
21.10.2018 01:00:00 15,6 14,4 2 1 8 5 SE 1017,5 14 0 0,0
21.10.2018 00:00:00 15,6 14,4 1 1 5 3 N 1017,5 10 0 0,0
20.10.2018 23:00:00 16,0 14,7 2 1 16 9 NW 1017,1 11 0 0,0
20.10.2018 22:00:00 16,1 14,8 4 2 13 7 NE 1016,5 7 0 0,0
20.10.2018 21:00:00 16,3 14,6 3 2 14 8 NNE 1016,7 4,2 0 1,4
20.10.2018 20:00:00 17,4 14,9 3 2 11 6 NE 1016,3 11 0 -
20.10.2018 19:00:00 17,9 14,0 3 2 15 8 SE 1015,6 19 0 0,0
20.10.2018 18:00:00 17,7 13,9 8 4 42 23 E 1015,9 20 0 0,4
20.10.2018 17:00:00 21,1 9,9 13 7 30 16 E 1015,2 20 0 0,0
20.10.2018 16:00:00 21,4 9,6 14 7 27 15 E 1015,0 20 11 0,0
20.10.2018 15:00:00 21,7 11,1 10 6 29 16 E 1015,4 20 31 0,0
20.10.2018 14:00:00 21,7 10,8 11 6 39 21 E 1016,0 20 60 -
20.10.2018 13:00:00 20,0 10,4 10 5 30 16 ENE 1016,5 20 60 0,0
20.10.2018 12:00:00 18,8 11,6 12 6 28 15 E 1016,8 20 59 0,0
20.10.2018 11:00:00 16,2 12,5 7 4 17 9 E 1016,7 20 60 0,0
20.10.2018 10:00:00 14,5 12,8 6 3 17 9 E 1016,2 20 38 0,0
20.10.2018 09:00:00 13,1 12,3 3 2 14 8 NNW 1015,9 18 0 0,0
20.10.2018 08:00:00 13,2 12,5 3 2 10 5 NE 1015,5 14 0 -
20.10.2018 07:00:00 13,2 12,6 1 1 7 4 NNE - - 0 0,2
20.10.2018 06:00:00 13,7 13,0 1 1 4 2 E 1014,9 10 0 0,0
20.10.2018 05:00:00 13,9 13,2 1 1 4 2 NE 1014,9 10 0 0,0
20.10.2018 04:00:00 14,2 13,3 2 1 5 3 WSW 1014,5 14 0 0,0
20.10.2018 03:00:00 14,9 13,8 1 1 7 4 E 1014,7 20 0 0,0
20.10.2018 02:00:00 15,5 14,3 3 1 7 4 ENE 1014,5 20 0 -
20.10.2018 01:00:00 15,6 14,6 3 1 7 4 NE 1014,9 17 0 0,0
20.10.2018 00:00:00 15,9 14,8 1 1 4 2 NE 1014,8 16 0 0,0
19.10.2018 23:00:00 16,4 14,9 1 1 7 4 ESE 1014,5 14 0 0,0
19.10.2018 22:00:00 16,7 14,9 3 1 5 3 ESE 1014,1 20 0 0,0
19.10.2018 21:00:00 17,2 14,8 1 1 6 3 N 1013,6 20 0 0,0
19.10.2018 20:00:00 - - - - - - - - - - -
19.10.2018 19:00:00 17,8 14,3 4 2 13 7 N 1012,3 20 0 0,0
19.10.2018 18:00:00 19,1 12,8 7 4 16 9 ESE 1011,9 20 0 0,0
19.10.2018 17:00:00 20,1 11,6 9 5 21 11 SE 1011,5 20 23 0,0
19.10.2018 16:00:00 20,5 11,4 9 5 20 11 E 1011,5 20 45 0,0
19.10.2018 15:00:00 19,2 13,0 6 3 16 9 ENE 1011,9 20 12 0,0
19.10.2018 14:00:00 20,1 13,6 7 4 16 8 E 1012,5 20 51 -
19.10.2018 13:00:00 18,1 13,8 6 3 13 7 E 1012,8 20 59 0,0
19.10.2018 12:00:00 15,8 13,5 3 2 9 5 NNE 1012,8 20 9 0,0
19.10.2018 11:00:00 14,4 13,5 4 2 11 6 E 1012,5 20 1 0,0
19.10.2018 10:00:00 13,6 12,8 3 2 10 5 E 1012,3 20 0 0,0
19.10.2018 09:00:00 12,6 11,8 1 1 7 4 NE 1011,4 20 0 0,0
19.10.2018 08:00:00 13,4 12,4 3 2 16 8 W 1010,8 13 0 -
19.10.2018 07:00:00 13,7 12,7 6 3 13 7 SSW 1010,7 20 0 0,0
19.10.2018 06:00:00 13,7 13,0 4 2 9 5 SW 1010,3 20 0 0,2
19.10.2018 05:00:00 13,7 13,0 3 1 9 5 W 1010,1 20 0 0,0
19.10.2018 04:00:00 13,9 13,2 4 2 10 6 WNW 1010,3 19 0 0,0
19.10.2018 03:00:00 14,4 13,8 2 1 8 5 NNW 1010,8 4,0 0 0,2
19.10.2018 02:00:00 14,3 13,6 2 1 9 5 NNE 1010,9 6 0 -
19.10.2018 01:00:00 14,4 13,5 3 2 8 4 N 1011,4 20 0 0,0
19.10.2018 00:00:00 14,3 13,4 1 1 6 3 NE 1011,6 10 0 0,0
18.10.2018 23:00:00 14,1 13,2 1 1 4 2 E 1011,1 20 0 0,0
18.10.2018 22:00:00 14,3 13,2 1 1 10 5 WSW 1010,5 20 0 0,2
18.10.2018 21:00:00 14,5 13,3 3 1 11 6 NNW 1010,5 11 0 0,6
18.10.2018 20:00:00 14,7 13,1 6 3 17 9 N 1009,5 20 0 -
18.10.2018 19:00:00 14,9 12,5 12 7 34 19 SSW 1007,9 20 0 3,0
18.10.2018 18:00:00 18,3 12,7 16 9 50 27 ESE 1008,0 0,5 18 4,6
18.10.2018 17:00:00 21,4 13,1 10 6 18 10 WSW 1006,2 20 60 0,0
18.10.2018 16:00:00 20,1 13,6 6 4 17 9 W 1006,6 20 58 0,0
18.10.2018 15:00:00 19,5 13,9 6 3 20 11 S 1007,3 20 40 0,0
18.10.2018 14:00:00 18,3 13,4 9 5 17 9 SSW 1008,3 20 39 -
18.10.2018 13:00:00 16,4 14,7 5 3 18 10 NNE 1008,6 20 25 0,2
18.10.2018 12:00:00 13,6 12,8 5 3 14 8 N 1009,0 7 0 0,6
18.10.2018 11:00:00 13,1 12,1 5 3 13 7 N 1009,2 6 0 3,0
18.10.2018 10:00:00 12,7 11,6 4 2 34 19 W 1009,3 3,9 0 2,4
18.10.2018 09:00:00 12,6 11,2 20 11 46 25 SSW 1008,7 1,5 0 5,6
18.10.2018 08:00:00 14,4 11,8 8 4 17 9 NW 1008,1 20 0 -
18.10.2018 07:00:00 14,4 12,6 9 5 29 16 W 1008,8 20 0 0,0
18.10.2018 06:00:00 14,5 12,8 5 3 16 9 WSW 1008,8 18 0 0,0
18.10.2018 05:00:00 14,8 12,6 10 6 18 10 WSW 1009,3 19 0 0,0
18.10.2018 04:00:00 16,1 13,3 5 3 12 6 WSW 1009,9 13 0 0,0
18.10.2018 03:00:00 16,5 13,1 6 3 14 8 WSW 1010,4 16 0 0,0
18.10.2018 02:00:00 17,0 12,5 4 2 16 9 WSW 1010,8 20 0 -
18.10.2018 01:00:00 17,4 12,3 6 3 10 6 SW 1011,7 20 0 0,0
18.10.2018 00:00:00 17,1 12,2 6 3 11 6 SSW 1012,1 20 0 0,0
17.10.2018 23:00:00 17,7 12,3 3 2 8 5 SSW 1012,2 20 0 0,0
17.10.2018 22:00:00 18,3 12,3 3 2 8 5 WSW 1012,4 20 0 0,0
17.10.2018 21:00:00 19,0 12,2 3 2 9 5 W 1012,7 12 0 0,0
17.10.2018 20:00:00 20,5 11,7 4 2 16 9 W 1012,3 14 13 -
17.10.2018 19:00:00 22,6 10,8 7 4 16 9 WNW 1012,0 20 49 0,0
17.10.2018 18:00:00 24,2 9,8 8 4 19 11 W 1012,3 20 60 0,0
17.10.2018 17:00:00 24,6 8,9 8 5 18 10 W 1013,1 12 60 0,0
17.10.2018 16:00:00 23,9 10,2 6 3 18 10 W 1013,9 20 60 0,0
17.10.2018 15:00:00 23,3 10,4 5 3 13 7 W 1015,0 20 60 0,0
17.10.2018 14:00:00 21,9 11,9 3 2 11 6 WNW 1016,2 20 60 -
17.10.2018 13:00:00 19,6 12,3 3 2 10 5 W 1017,3 17 60 0,0
17.10.2018 12:00:00 18,0 12,6 4 2 8 4 W 1017,8 20 60 0,0

tt = Température de l'air
td = dewpoint
ff = Vitesse du vent
fx = gusts
dd = Direction du vent
ppp = reduced air pressure
vv = visibility
sd = Ensoleillement
rr = Quantités de précipitations

stations d'obs. à proximité